Theta_e
319 319 318 314 312 312 312 315 316 315 311 311 312 313 312 310 310 311 310 310 311 311
318 317 313 311 312 312 313 312 312 312 310 310 311 311 310 310 309 310 310 310 310 311
311 311 310 311 311 311 310 309 308 309 309 311 312 312 311 310 311 309 309 310 310 311
308 308 307 307 305 304 304 305 306 307 309 309 310 310 311 307 308 308 309 310 310 311
306 305 307 304 305 306 305 305 305 306 306 307 309 306 306 308 310 308 309 310 311 311
305 306 303 305 306 306 305 304 304 304 305 307 307 307 308 310 311 309 310 311 311 312
303 305 304 305 305 304 305 304 303 304 305 306 307 307 308 308 308 310 312 313 313 313
307 305 304 304 304 304 304 304 304 305 305 306 306 308 307 309 308 309 310 314 316 314
305 305 305 304 304 303 303 303 303 304 305 306 308 306 307 307 304 308 310 313 314 314
306 305 304 304 303 301 302 302 303 306 304 306 305 305 304 306 304 304 309 313 315 314
306 305 304 302 301 301 302 302 305 307 306 307 308 304 303 303 303 306 313 312 312 309
306 305 304 303 301 301 301 302 303 307 306 304 304 304 302 303 303 310 312 316 313 310
307 306 304 303 301 301 302 304 305 305 305 307 304 303 302 302 305 307 312 310 309 308
306 305 305 302 301 302 303 303 303 304 304 304 305 305 302 300 307 311 310 308 305 305
Wind_Speed
4 5 4 3 2 2 2 4 5 5 5 6 6 6 6 3 5 6 5 7 6 5
6 6 6 6 3 2 3 5 6 7 7 8 7 8 7 4 6 6 6 7 6 5
7 6 4 4 4 5 4 5 7 7 6 6 7 8 7 5 6 6 5 5 6 6
4 3 3 3 4 5 4 6 6 7 9 9 7 9 6 6 7 7 7 6 6 7
2 3 1 2 5 6 6 6 6 6 7 9 9 7 8 10 7 7 6 7 6 7
4 1 1 5 6 6 7 7 7 7 8 10 10 9 11 10 7 6 6 7 7 8
5 4 2 4 5 7 7 7 8 8 8 9 9 6 6 6 6 6 6 9 8 7
2 2 2 5 6 7 6 7 7 9 9 8 6 3 5 4 6 6 8 9 6 6
6 2 2 5 6 7 7 7 7 8 7 8 5 4 9 9 6 7 8 7 4 5
4 1 3 5 5 7 8 7 6 7 7 8 3 7 9 12 6 7 7 6 4 4
3 3 4 4 5 7 5 6 7 4 4 5 3 6 9 12 7 6 7 5 6 6
3 3 4 6 6 7 5 5 5 6 4 2 6 9 10 10 7 6 4 7 7 6
4 2 4 5 7 4 4 5 4 6 5 3 3 7 10 8 5 3 5 6 6 6
5 5 5 5 4 4 5 5 4 5 5 5 4 5 8 6 4 2 4 4 2 1
Wind_Direction
18 73 93 145 168 331 290 304 319 320 308 300 287 281 262 253 262 252 246 250 233 234
62 43 28 16 22 54 4 327 321 308 305 295 291 279 272 255 261 256 249 247 244 235
66 63 56 36 21 25 346 324 321 314 311 305 294 281 274 252 257 259 256 237 243 248
69 51 41 48 354 337 296 292 294 293 298 293 280 293 291 280 261 264 257 259 245 242
42 10 154 353 290 274 274 279 280 284 291 293 289 289 280 284 282 261 269 260 252 250
289 12 244 279 303 312 302 298 294 291 287 295 304 297 316 281 270 291 268 261 245 250
300 182 279 306 311 316 303 307 303 295 286 282 281 299 308 317 307 293 289 281 249 234
143 92 17 336 322 307 314 307 300 303 301 298 292 329 323 328 311 309 305 304 284 229
109 68 347 326 308 308 306 304 305 304 298 300 307 332 349 339 327 306 296 299 8 101
134 30 314 317 319 315 306 307 304 319 319 317 32 16 343 326 306 295 286 290 185 104
90 345 315 309 308 301 293 304 309 320 340 335 338 344 347 333 298 294 271 263 162 108
130 308 313 309 283 288 299 307 317 313 347 10 329 335 328 339 313 290 308 96 101 113
187 258 282 270 276 272 286 274 317 323 330 294 309 315 329 352 301 350 60 68 85 122
198 235 262 247 265 279 280 293 317 320 332 336 331 337 350 328 305 40 89 107 107 80